Retour au catalogue

STARLINK-34947

ActifCommunicationsSSO
NORAD 65184·PAYLOAD·🇺🇸 United States

Lancé Aug 14, 2025 depuis Vandenberg Space Force Base

Loading…

Prochains Passages (prochaines 24 heures)

TLE

FraisSource: CelesTrak SupGP

Époque: Sep 15, 2026, 03:16 UTC

1 65184C 25175L   26258.13659722  .00009098  00000+0  28261-3 0  2587
2 65184  97.2850 127.1361 0001586  87.4672  35.8690 15.33412108    12

Suivez STARLINK-34947 en temps réel avec AllMySat

Download on the App Store